• In Österreich
  • Länderverzeichnis
  • Für 7 Tage
  • Wassertemperatur
  • Satellitenkarten
  • Wetterkarte
  • News
  • Widgets
  • user-avatar
    Anmelden

    Stündliche Wetter Biskira

    Heute, 25 Mai, Freitag

    Zeit Temperatur Niederschläge Wind Luftdruck Luftfeuchtigkeit
    00:00 +30°C° 0 mm 4 m/S 752 mmHg 30%
    01:00 +29°C° 0 mm 4 m/S 751 mmHg 32%
    02:00 +29°C° 0 mm 4 m/S 751 mmHg 33%
    03:00 +28°C° 0 mm 4 m/S 751 mmHg 35%
    04:00 +28°C° 0 mm 4 m/S 751 mmHg 36%
    05:00 +28°C° 0 mm 4 m/S 751 mmHg 37%
    06:00 +28°C° 0 mm 4 m/S 752 mmHg 38%
    07:00 +29°C° 0 mm 4 m/S 752 mmHg 34%
    08:00 +32°C° 0 mm 5 m/S 752 mmHg 30%
    09:00 +33°C° 0 mm 5 m/S 752 mmHg 26%
    10:00 +34°C° 0 mm 6 m/S 751 mmHg 24%
    11:00 +35°C° 0 mm 6 m/S 751 mmHg 21%
    12:00 +38°C° 0 mm 7 m/S 751 mmHg 19%
    13:00 +38°C° 0 mm 7 m/S 750 mmHg 17%
    14:00 +39°C° 0 mm 7 m/S 750 mmHg 16%
    15:00 +39°C° 0 mm 7 m/S 749 mmHg 15%
    16:00 +39°C° 0 mm 6 m/S 749 mmHg 15%
    17:00 +39°C° 0 mm 6 m/S 749 mmHg 16%
    18:00 +37°C° 0 mm 5 m/S 749 mmHg 16%
    19:00 +36°C° 0 mm 5 m/S 749 mmHg 18%
    20:00 +35°C° 0 mm 5 m/S 749 mmHg 19%
    21:00 +35°C° 0 mm 5 m/S 750 mmHg 21%
    22:00 +34°C° 0 mm 6 m/S 750 mmHg 21%
    23:00 +34°C° 0 mm 6 m/S 750 mmHg 22%

    Morgen, 26 Mai, Samstag

    Zeit Temperatur Niederschläge Wind Luftdruck Luftfeuchtigkeit
    00:00 +33°C° 0 mm 6 m/S 750 mmHg 23%
    01:00 +32°C° 0 mm 6 m/S 750 mmHg 25%
    02:00 +32°C° 0 mm 6 m/S 750 mmHg 27%
    03:00 +30°C° 0 mm 6 m/S 750 mmHg 29%
    04:00 +30°C° 0 mm 7 m/S 750 mmHg 29%
    05:00 +30°C° 0 mm 7 m/S 750 mmHg 29%
    06:00 +32°C° 0 mm 8 m/S 751 mmHg 28%
    07:00 +33°C° 0 mm 8 m/S 751 mmHg 26%
    08:00 +34°C° 0 mm 8 m/S 751 mmHg 24%
    09:00 +35°C° 0 mm 9 m/S 751 mmHg 21%
    10:00 +37°C° 0 mm 8 m/S 751 mmHg 20%
    11:00 +38°C° 0 mm 8 m/S 751 mmHg 18%
    12:00 +40°C° 0 mm 7 m/S 750 mmHg 16%
    13:00 +40°C° 0 mm 6 m/S 750 mmHg 16%
    14:00 +40°C° 0 mm 6 m/S 750 mmHg 15%
    15:00 +41°C° 0 mm 5 m/S 749 mmHg 15%
    16:00 +40°C° 0 mm 5 m/S 750 mmHg 16%
    17:00 +40°C° 0 mm 4 m/S 750 mmHg 17%
    18:00 +38°C° 0 mm 3 m/S 751 mmHg 18%
    19:00 +37°C° 0 mm 5 m/S 751 mmHg 21%
    20:00 +36°C° 0 mm 6 m/S 752 mmHg 24%
    21:00 +35°C° 0 mm 7 m/S 753 mmHg 27%
    22:00 +33°C° 0,5 mm 7 m/S 753 mmHg 34%
    23:00 +32°C° 0,5 mm 7 m/S 753 mmHg 40%

    übermorgen, 27 Mai, Sonntag

    Zeit Temperatur Niederschläge Wind Luftdruck Luftfeuchtigkeit
    00:00 +29°C° 0,5 mm 7 m/S 753 mmHg 47%
    01:00 +29°C° 0,3 mm 7 m/S 753 mmHg 47%
    02:00 +29°C° 0,3 mm 6 m/S 752 mmHg 47%
    03:00 +29°C° 0,3 mm 6 m/S 752 mmHg 47%
    04:00 +30°C° 0 mm 5 m/S 752 mmHg 44%
    05:00 +30°C° 0 mm 4 m/S 751 mmHg 41%
    06:00 +30°C° 0 mm 3 m/S 751 mmHg 38%
    07:00 +33°C° 0 mm 4 m/S 751 mmHg 33%
    08:00 +34°C° 0 mm 5 m/S 751 mmHg 28%
    09:00 +35°C° 0 mm 6 m/S 752 mmHg 22%
    10:00 +38°C° 0 mm 7 m/S 751 mmHg 20%
    11:00 +39°C° 0 mm 7 m/S 751 mmHg 19%
    12:00 +40°C° 0 mm 7 m/S 750 mmHg 17%
    13:00 +40°C° 0 mm 7 m/S 750 mmHg 16%
    14:00 +41°C° 0 mm 8 m/S 749 mmHg 15%
    15:00 +41°C° 0 mm 8 m/S 749 mmHg 15%
    16:00 +41°C° 0 mm 8 m/S 748 mmHg 15%
    17:00 +40°C° 0 mm 8 m/S 748 mmHg 16%
    18:00 +40°C° 0 mm 8 m/S 748 mmHg 17%
    19:00 +39°C° 0 mm 9 m/S 748 mmHg 19%
    20:00 +37°C° 0 mm 9 m/S 748 mmHg 21%
    21:00 +36°C° 0 mm 10 m/S 748 mmHg 24%
    22:00 +34°C° 0 mm 9 m/S 748 mmHg 23%
    23:00 +34°C° 0 mm 9 m/S 748 mmHg 23%

    28 Mai, Montag

    Zeit Temperatur Niederschläge Wind Luftdruck Luftfeuchtigkeit
    00:00 +33°C° 0 mm 9 m/S 748 mmHg 23%
    01:00 +32°C° 0 mm 9 m/S 748 mmHg 23%
    02:00 +32°C° 0 mm 8 m/S 748 mmHg 23%
    03:00 +31°C° 0 mm 8 m/S 747 mmHg 24%
    04:00 +31°C° 0 mm 8 m/S 748 mmHg 25%
    05:00 +31°C° 0 mm 8 m/S 748 mmHg 25%
    06:00 +31°C° 0 mm 8 m/S 748 mmHg 26%
    07:00 +32°C° 0 mm 8 m/S 748 mmHg 25%
    08:00 +34°C° 0 mm 8 m/S 748 mmHg 24%
    09:00 +35°C° 0 mm 8 m/S 748 mmHg 24%
    10:00 +37°C° 0 mm 8 m/S 748 mmHg 22%
    11:00 +39°C° 0 mm 8 m/S 748 mmHg 20%
    12:00 +40°C° 0 mm 8 m/S 747 mmHg 18%
    13:00 +41°C° 0 mm 8 m/S 747 mmHg 16%
    14:00 +43°C° 0 mm 7 m/S 746 mmHg 15%
    15:00 +44°C° 0 mm 6 m/S 746 mmHg 13%
    16:00 +43°C° 0 mm 7 m/S 746 mmHg 13%
    17:00 +43°C° 0 mm 7 m/S 745 mmHg 13%
    18:00 +43°C° 0 mm 7 m/S 745 mmHg 13%
    19:00 +41°C° 0 mm 6 m/S 746 mmHg 15%
    20:00 +39°C° 0 mm 6 m/S 746 mmHg 16%
    21:00 +38°C° 0 mm 6 m/S 747 mmHg 18%
    22:00 +36°C° 0 mm 6 m/S 747 mmHg 24%
    23:00 +34°C° 0 mm 5 m/S 747 mmHg 31%

    29 Mai, Dienstag

    Zeit Temperatur Niederschläge Wind Luftdruck Luftfeuchtigkeit
    00:00 +33°C° 0 mm 5 m/S 747 mmHg 37%
    01:00 +32°C° 0 mm 5 m/S 747 mmHg 41%
    02:00 +30°C° 0 mm 5 m/S 747 mmHg 45%
    03:00 +29°C° 0 mm 5 m/S 747 mmHg 49%
    04:00 +29°C° 0 mm 5 m/S 747 mmHg 49%
    05:00 +29°C° 0 mm 5 m/S 748 mmHg 50%
    06:00 +29°C° 0 mm 5 m/S 748 mmHg 50%
    07:00 +30°C° 0 mm 5 m/S 748 mmHg 45%
    08:00 +32°C° 0 mm 5 m/S 748 mmHg 40%
    09:00 +34°C° 0 mm 4 m/S 748 mmHg 34%
    10:00 +35°C° 0 mm 4 m/S 748 mmHg 31%
    11:00 +36°C° 0 mm 4 m/S 748 mmHg 28%
    12:00 +37°C° 0 mm 4 m/S 748 mmHg 25%
    13:00 +37°C° 0 mm 4 m/S 747 mmHg 24%
    14:00 +38°C° 0 mm 4 m/S 747 mmHg 22%
    15:00 +38°C° 0 mm 4 m/S 747 mmHg 21%
    16:00 +39°C° 0 mm 5 m/S 747 mmHg 22%
    17:00 +37°C° 0 mm 5 m/S 747 mmHg 23%
    18:00 +37°C° 0 mm 5 m/S 747 mmHg 24%
    19:00 +36°C° 0 mm 5 m/S 748 mmHg 28%
    20:00 +35°C° 0 mm 5 m/S 748 mmHg 33%
    21:00 +34°C° 0 mm 5 m/S 749 mmHg 37%
    22:00 +33°C° 0 mm 5 m/S 749 mmHg 42%
    23:00 +32°C° 0 mm 5 m/S 748 mmHg 47%

    30 Mai, Mittwoch

    Zeit Temperatur Niederschläge Wind Luftdruck Luftfeuchtigkeit
    00:00 +30°C° 0 mm 5 m/S 748 mmHg 51%
    01:00 +30°C° 0 mm 5 m/S 748 mmHg 52%
    02:00 +29°C° 0 mm 5 m/S 748 mmHg 53%
    03:00 +28°C° 0 mm 5 m/S 748 mmHg 55%
    04:00 +29°C° 0 mm 4 m/S 748 mmHg 52%
    05:00 +29°C° 0 mm 4 m/S 748 mmHg 50%
    06:00 +29°C° 0 mm 4 m/S 748 mmHg 48%
    07:00 +30°C° 0 mm 4 m/S 748 mmHg 43%
    08:00 +33°C° 0 mm 3 m/S 749 mmHg 38%
    09:00 +34°C° 0 mm 3 m/S 749 mmHg 33%
    10:00 +35°C° 0 mm 3 m/S 748 mmHg 30%
    11:00 +36°C° 0 mm 2 m/S 748 mmHg 27%
    12:00 +37°C° 0 mm 2 m/S 748 mmHg 23%
    13:00 +38°C° 0 mm 2 m/S 748 mmHg 22%
    14:00 +39°C° 0 mm 2 m/S 747 mmHg 20%
    15:00 +39°C° 0 mm 2 m/S 747 mmHg 19%
    16:00 +39°C° 0,1 mm 2 m/S 747 mmHg 20%
    17:00 +39°C° 0,1 mm 2 m/S 748 mmHg 21%
    18:00 +39°C° 0,1 mm 2 m/S 748 mmHg 21%
    19:00 +37°C° 0,1 mm 3 m/S 748 mmHg 26%
    20:00 +36°C° 0,1 mm 3 m/S 749 mmHg 30%
    21:00 +35°C° 0,1 mm 3 m/S 749 mmHg 34%
    22:00 +34°C° 0 mm 4 m/S 749 mmHg 37%
    23:00 +33°C° 0 mm 5 m/S 749 mmHg 41%
    Mehr zeigen